Skip Page Navigation
NASA JPL Caltech
NASA Logo - Jet Propulsion Laboratory + View the NASA Portal
+ Center for Near-Earth Object Studies
JPL Home Earth Solar System Stars & Galaxies Technology
JPL Solar System Dynamics
BODIES ORBITS EPHEMERIDES TOOLS PHYSICAL DATA DISCOVERY FAQ SITE MAP
IMPORTANT: The SSD Announcement email list is now available. Major changes are coming in the near future, including possible hostname and/or URL changes. To be notified of such changes, subscribe to this email list.

Please visit this page for more details.


JPL Small-Body Database Browser
Search: [ help ]  
74978 (1999 TY234)
Classification: Main-belt Asteroid          SPK-ID: 2074978
Ephemeris | Orbit Diagram | Orbital Elements | Mission Design | Physical Parameters | Discovery Circumstances | Close-Approach Data ]

[ show orbit diagram ]
Orbital Elements at Epoch 2458600.5 (2019-Apr-27.0) TDB
Reference: JPL 21 (heliocentric ecliptic J2000)
 Element Value Uncertainty (1-sigma)   Units 
e .1934503699988802 3.2046e-08  
a 2.426372703890341 1.2715e-08 au
q 1.956990006567571 7.7495e-08 au
i 10.78343754067716 6.0688e-06 deg
node 47.27054648047454 2.521e-05 deg
peri 246.1234714491005 3.1872e-05 deg
M 125.7678723039856 1.9975e-05 deg
tp 2458118.217051599228
(2017-Dec-30.71705160)
7.5668e-05 TDB
period 1380.494543190073
3.78
1.0852e-05
2.971e-08
d
yr
n .2607761122822733 2.0499e-09 deg/d
Q 2.895755401213111 1.5175e-08 au
  Orbit Determination Parameters
   # obs. used (total)      699  
   data-arc span      7892 days (21.61 yr)  
   first obs. used      1998-04-20  
   last obs. used      2019-11-28  
   planetary ephem.      DE431  
   SB-pert. ephem.      SB431-N16  
   condition code      0  
   norm. resid. RMS      .56407  
   source      ORB  
   producer      Otto Matic  
   solution date      2019-Dec-04 06:50:13  

Additional Information
 Earth MOID = .969346 au 
 Jupiter MOID = 2.34362 au 
 T_jup = 3.461 
[ show covariance matrix ]

Ephemeris | Orbit Diagram | Orbital Elements | Mission Design | Physical Parameters | Discovery Circumstances | Close-Approach Data ]

Physical Parameter Table
Parameter Symbol Value Units Sigma Reference Notes
absolute magnitude H 15.7   n/a MPO319944  
diameter diameter 4.015 km 0.039 urn:nasa:pds:neowise_diameters_albedos::2.0[mainbelt] (http://adsabs.harvard.edu/abs/2011ApJ...741...68M)  
geometric albedo albedo 0.083   0.010 urn:nasa:pds:neowise_diameters_albedos::2.0[mainbelt] (http://adsabs.harvard.edu/abs/2011ApJ...741...68M)  

74978 (1999 TY234)          Discovered 1999-Oct-03 by CSS at Catalina
Reference: 20040415/Numbers.arcLast Updated: 2004-04-19

[ show close-approach data ]
Alternate Designations
 1999 TY234 = 1998 HY135 
Ephemeris | Orbit Diagram | Orbital Elements | Mission Design | Physical Parameters | Discovery Circumstances | Close-Approach Data ]
ABOUT SSD CREDITS/AWARDS PRIVACY/COPYRIGHT GLOSSARY LINKS
FirstGov 2019-Dec-10 21:51 UT
(server date/time)  
NASA Home Page
Site Manager:   Ryan S. Park
Webmaster  Alan B. Chamberlin